Preview of NWS' New Version of Forecast
This preview is not operational and should not be used for support decisions.

Regional Weather Roundup (RWR)

Issued by National Weather Service (NWS)

                            
000
ASCA42 TJSJ 182310
RWRPR 
PUERTO RICO/U.S. VIRGIN ISLANDS HOURLY WEATHER ROUNDUP
NATIONAL WEATHER SERVICE SAN JUAN PR
700 PM AST THU APR 18 2019

PRZ001>002-007>008-010-190000-
PUERTO RICO
  
CITY           SKY/WX    TMP DP  RH WIND       PRES   REMARKS
SAN JUAN LMM   PTCLDY    79  70  73 E12       30.01R                  
AGUADILLA      MOCLDY    77  70  78 E17       30.01                   
CEIBA          PTCLDY    81  70  69 MISG      30.01R                  
$$

VIZ001>002-190000-
U.S. VIRGIN ISLANDS
  
CITY           SKY/WX    TMP DP  RH WIND       PRES   REMARKS
CHARLOTTE AMA  CLEAR     81  66  61 E13G18    29.99R                  
CHRISTIANSTED  PTCLDY    79  68  69 NE15      30.00R                  
$$

HOURLY WEATHER ROUNDUP FOR THE NEWS MEDIA
  
CITY           SKY/WX    TMP DP  RH WIND       PRES   REMARKS
ORLANDO        FAIR      83  69  62 SE16      29.88F                  
NEW YORK       MOCLDY    55  52  89 S25G31    29.90F                  
NEWARK         MOCLDY    57  50  77 E7        29.87F                  
CHICAGO        CLOUDY    47  40  76 NW14      29.72R                  
HARTFORD       CLOUDY    51  50  96 S13G26    30.03F                  
BOSTON         CLOUDY    50  44  80 SE8       30.03F                  
DALLAS         MOSUNNY   72  40  31 N21G39    29.83R                  
PHILADELPHIA   MOCLDY    76  54  46 S9        29.85F                  
LOS ANGELES    MOSUNNY   69  52  54 W18       30.03F                  
WASHINGTON DC  FAIR      80  54  40 S13       29.79F